Theta_e
352 352 352 353 352 351 350 350 350 350 350 349 350 350 348 349 349 348 349 349 347 347 348 349 348 348 348 348 349 348 349 350 351 350 348 349 349 344 339 338 336 335 338 342 343 342 340 339 339 340 339 339 341 341 340 339 337 335 334 334 334 334 334 334 334 334 334 334 334 333 334 334 334 334 334 333 333 332 331 332 333 334 335 336 336
352 352 352 353 352 349 348 349 350 349 348 349 349 349 349 349 348 348 349 348 348 348 348 348 348 348 348 348 348 347 347 349 349 350 350 349 350 347 341 339 338 335 335 339 342 343 342 341 340 339 339 340 341 341 340 340 339 337 336 335 335 335 335 334 334 334 334 334 334 334 334 334 334 335 334 334 333 333 332 332 332 332 333 334 334
353 352 352 352 350 348 348 347 349 350 348 349 348 348 348 349 348 347 346 347 348 348 346 345 345 346 346 346 347 348 347 347 348 349 349 349 350 348 343 341 341 338 336 337 339 342 342 342 341 340 339 340 340 340 340 340 340 340 338 337 336 336 336 335 335 335 334 334 334 334 333 333 333 334 334 334 334 334 333 333 332 331 331 331 332
350 349 350 351 350 348 349 347 349 350 348 349 348 345 346 348 349 347 345 348 348 346 345 343 342 342 342 342 344 346 347 347 347 348 348 348 348 349 346 344 342 340 339 337 338 339 340 340 340 340 340 341 341 340 340 340 341 341 341 339 338 338 338 337 337 337 336 335 334 334 333 333 333 333 333 334 334 334 334 334 334 333 332 331 330
346 345 346 350 350 348 348 347 347 348 347 347 346 345 345 347 349 347 346 346 345 343 343 342 340 340 339 340 341 345 346 347 347 348 349 348 348 348 347 345 344 342 341 339 338 338 337 338 338 339 339 340 341 341 341 340 340 341 342 342 341 340 340 339 338 338 338 337 336 335 334 333 333 332 332 332 333 334 334 334 334 334 333 332 331
344 342 344 347 348 348 347 347 347 348 348 347 346 346 346 347 347 345 344 343 343 342 342 341 340 341 341 342 343 345 344 345 347 348 348 347 346 345 343 343 342 342 342 341 340 338 337 336 336 337 337 338 340 341 342 341 340 340 342 342 342 342 341 339 338 338 338 338 337 336 335 334 334 333 332 331 330 331 332 333 333 334 334 334 333
343 342 343 345 347 349 348 348 348 347 347 347 347 347 346 346 345 344 344 343 342 340 340 341 341 342 343 343 343 342 341 344 346 347 347 346 345 344 343 343 343 343 344 343 341 339 339 337 334 334 336 337 338 340 341 342 341 341 341 341 341 341 339 338 338 338 338 338 337 337 337 336 336 335 334 333 332 330 330 330 331 332 333 334 334
343 343 343 345 347 349 350 349 348 347 348 348 346 345 345 344 344 342 342 341 338 339 341 342 342 343 344 344 344 341 341 345 346 346 346 345 344 344 345 346 346 345 343 343 342 340 340 339 335 334 335 335 336 339 341 341 342 343 342 340 340 339 337 337 338 339 339 338 338 337 337 337 337 337 337 336 335 333 332 330 330 330 331 333 334
343 343 343 344 346 349 350 349 348 349 347 344 343 344 344 342 341 340 339 339 338 339 341 341 341 343 343 343 344 343 343 345 345 345 344 344 345 345 347 348 347 345 344 345 345 343 342 339 338 337 336 336 335 336 338 339 341 342 341 340 340 339 339 338 338 339 339 339 338 338 338 338 338 338 338 338 337 336 335 333 332 331 330 330 331
344 343 343 344 345 347 349 349 349 349 344 340 342 343 343 341 339 338 338 338 339 339 340 340 340 342 342 343 344 343 342 344 343 343 343 343 345 346 348 347 347 347 347 346 346 345 343 340 340 340 339 339 338 337 338 339 341 341 341 341 340 340 339 338 337 338 339 339 339 339 339 339 339 338 339 339 338 338 337 336 335 334 333 332 331
345 343 344 345 345 347 348 348 348 345 339 339 342 341 342 340 337 339 340 340 341 341 341 341 341 342 342 342 343 340 338 342 343 342 343 343 344 345 346 346 346 347 346 345 344 344 344 342 342 342 341 341 340 339 340 340 342 342 342 342 341 340 340 339 339 339 339 339 340 340 339 339 340 339 339 339 339 339 338 338 337 336 335 334 333
345 345 345 345 347 347 348 347 345 342 338 339 342 340 339 337 337 340 341 342 342 342 343 343 342 343 342 341 342 340 337 341 343 342 342 343 343 344 344 344 345 345 343 342 340 340 340 340 341 343 343 341 339 339 340 340 340 341 341 342 341 341 341 341 340 340 338 338 339 339 340 340 341 340 340 339 339 339 339 339 339 338 337 336 335
344 345 345 346 347 346 348 346 343 343 341 341 342 340 338 337 339 341 341 343 344 344 344 342 342 344 343 342 342 341 341 342 342 342 341 341 342 342 342 342 342 342 342 339 336 337 338 338 338 340 341 340 340 341 339 337 338 340 340 341 341 341 341 341 340 340 340 339 339 339 339 340 341 341 341 341 341 340 340 340 340 340 339 338 336
344 345 346 346 346 347 347 344 341 343 340 339 341 342 340 338 339 342 342 343 344 343 341 340 342 343 341 341 342 341 341 341 341 341 340 340 340 340 340 341 341 340 340 339 339 339 339 340 338 335 334 336 339 341 339 339 339 337 335 335 337 338 340 341 341 341 341 341 341 341 340 341 341 341 341 342 342 342 341 340 340 341 340 340 339
345 346 345 345 346 347 345 341 339 340 338 339 342 342 340 338 339 341 341 341 341 342 340 337 340 341 339 339 339 339 341 342 341 340 340 339 338 339 339 339 339 338 339 339 339 339 339 340 337 329 328 330 332 336 339 340 337 333 331 332 333 335 337 339 340 341 342 342 342 342 342 342 342 342 342 342 342 342 342 340 340 340 340 340 340
348 347 347 346 347 345 340 339 338 337 338 341 342 341 340 339 340 341 340 339 340 341 340 336 335 338 339 339 336 336 340 340 339 338 337 337 337 337 336 336 337 336 337 337 335 337 339 337 330 325 325 325 327 332 335 336 334 332 331 331 331 332 333 333 335 337 339 340 341 341 341 342 342 342 342 342 341 341 340 340 340 340 340 340 340
349 348 348 347 344 339 338 339 339 338 340 342 342 340 338 338 340 340 339 339 338 339 340 338 334 332 336 340 339 340 341 336 334 336 337 337 336 336 335 335 335 332 332 333 330 333 338 333 326 322 322 322 324 328 329 327 327 328 326 325 326 327 327 328 330 331 333 335 337 339 339 340 341 341 341 341 339 340 340 340 340 341 341 341 341
347 345 346 345 339 337 338 340 342 342 342 343 342 339 336 337 339 339 340 337 334 336 339 338 335 331 333 337 339 341 341 337 336 337 337 336 336 335 334 333 334 331 331 332 329 331 334 333 330 325 319 319 320 321 321 319 320 320 319 320 320 321 323 324 325 327 329 331 332 334 335 336 337 338 339 339 339 340 340 340 340 340 341 341 342
346 346 344 344 340 337 338 339 342 344 344 343 340 337 337 339 339 339 339 336 332 336 338 337 337 337 336 336 338 338 336 337 338 337 337 337 336 335 333 332 333 333 331 331 331 331 329 328 331 328 320 317 317 317 317 316 316 316 315 316 316 316 318 319 320 322 323 325 328 330 331 333 334 335 336 336 338 339 340 340 340 340 341 341 342
345 349 344 341 340 339 340 341 343 343 342 340 337 338 340 340 338 336 335 335 336 337 338 337 337 339 337 336 339 338 335 337 336 335 337 337 336 335 334 333 331 331 330 328 329 329 328 326 327 329 327 321 318 320 320 317 315 316 315 316 316 315 315 315 316 317 318 320 321 323 326 327 329 331 332 333 335 336 338 339 340 341 341 342 342
341 346 345 343 342 343 343 341 339 338 335 335 337 339 340 339 336 335 335 337 337 337 337 338 337 337 337 337 339 338 337 338 334 334 336 335 335 334 333 332 332 331 331 330 329 327 327 328 326 326 328 327 324 325 326 322 317 317 318 317 318 318 317 317 316 315 315 316 317 318 319 321 323 324 326 329 331 332 334 336 337 339 340 341 342
342 343 344 345 345 343 341 337 333 335 335 337 341 339 337 337 337 338 338 338 338 336 336 336 337 337 336 335 337 337 337 337 335 335 336 334 334 333 331 331 332 332 331 331 332 328 327 328 327 326 328 329 329 328 328 326 320 317 318 318 319 319 319 319 318 317 316 314 314 315 315 317 317 319 320 322 324 327 329 332 333 335 337 338 340
347 345 343 345 345 340 339 338 337 338 337 337 341 339 336 336 337 338 338 337 338 337 335 335 336 336 336 335 336 337 336 336 334 333 334 335 335 333 332 332 333 333 332 331 331 330 329 328 327 328 327 327 329 330 329 326 322 318 318 317 317 318 318 318 319 319 318 317 315 313 314 314 315 316 316 317 318 320 322 325 328 331 333 335 336
348 348 345 346 345 339 337 340 340 340 337 336 339 339 338 339 338 338 337 337 337 335 334 336 337 337 337 336 335 336 336 336 335 333 334 336 336 335 335 333 333 332 332 333 332 332 331 329 327 328 327 327 328 329 327 324 324 324 320 317 316 316 317 317 317 318 318 319 317 315 314 313 314 314 315 315 316 317 318 319 321 324 327 330 332
347 347 346 345 344 340 337 338 339 338 337 337 339 338 338 339 338 338 338 338 337 336 335 336 338 337 336 336 336 335 335 335 335 335 335 335 336 336 336 334 334 333 332 333 334 333 332 331 329 328 329 329 327 328 326 323 326 326 320 317 316 316 316 316 317 318 318 319 318 317 315 313 313 313 314 314 315 316 316 317 317 318 320 322 325
347 346 346 345 344 341 336 335 337 335 334 337 339 338 338 338 338 338 338 338 337 337 337 337 338 336 334 335 335 334 335 334 334 335 334 334 335 335 335 335 335 334 332 333 333 333 332 332 330 328 329 329 329 329 328 326 326 324 319 317 317 317 317 317 317 318 319 319 319 319 318 316 314 313 313 314 314 315 315 316 317 317 317 318 319
347 346 346 343 343 341 333 330 335 333 330 335 338 338 337 338 338 338 338 338 337 337 337 338 338 337 335 334 332 333 336 335 334 334 334 334 335 335 335 335 335 334 333 333 333 332 332 332 331 330 329 329 329 329 329 328 328 326 321 318 318 319 319 318 318 318 319 320 320 321 321 320 318 315 314 314 314 314 315 315 316 316 317 317 317
347 347 346 342 340 340 334 330 333 332 331 334 338 339 338 338 338 337 338 338 337 337 337 337 336 336 336 334 331 332 335 335 334 335 335 334 335 334 334 335 335 335 334 333 333 332 332 331 331 331 330 329 329 329 329 329 329 328 326 323 321 321 321 320 319 319 320 320 322 322 323 322 321 318 316 315 315 315 315 316 316 317 317 317 317
348 346 345 343 338 334 334 336 335 334 336 337 337 338 338 337 337 337 338 337 336 337 336 336 337 336 336 336 335 334 333 333 333 334 333 332 332 333 333 334 333 334 334 334 333 332 332 331 330 330 330 329 330 330 330 330 329 329 329 327 324 322 322 321 320 320 321 321 322 322 322 322 322 320 316 315 315 316 316 317 317 317 317 317 318
348 345 344 343 335 327 330 338 338 334 336 338 337 337 337 337 337 337 337 337 337 337 333 331 335 336 335 336 336 336 335 334 334 335 334 332 331 332 333 333 332 332 333 334 334 334 333 332 331 330 330 330 330 331 330 330 330 329 329 328 325 322 322 322 321 321 321 321 321 321 321 320 320 319 317 315 316 316 317 317 317 317 317 317 317
344 342 338 338 336 328 326 334 337 328 325 331 333 332 331 329 330 333 336 335 333 335 334 331 333 335 334 335 336 335 334 332 332 333 333 332 331 331 331 332 331 331 332 333 334 333 332 333 332 332 332 331 331 331 331 330 330 329 328 327 325 324 324 323 322 322 321 321 320 319 319 318 318 318 316 315 316 317 317 317 317 317 317 317 317
341 336 330 331 333 328 324 330 331 321 319 323 323 323 323 321 321 324 332 336 333 332 334 336 336 335 334 334 335 334 331 327 326 329 331 331 330 331 331 330 330 330 330 330 331 330 329 331 332 332 332 332 332 332 332 331 329 329 329 328 327 326 325 324 322 322 322 321 319 319 318 316 316 317 316 315 316 317 317 317 317 316 316 316 317
338 333 327 326 325 323 325 329 325 317 319 319 318 320 319 319 319 318 325 336 335 331 333 337 337 336 334 331 329 328 327 326 326 330 332 332 332 333 333 332 333 333 332 331 330 328 326 327 330 332 333 332 332 332 332 331 331 330 329 328 328 327 325 323 322 322 322 322 321 320 319 316 315 315 315 315 316 317 317 317 316 316 316 316 316
337 330 327 324 320 319 322 324 319 316 319 318 318 320 318 318 318 316 320 328 330 330 333 336 336 335 332 327 325 325 326 326 327 329 333 333 334 335 335 335 336 335 333 332 330 328 327 326 327 330 331 332 332 332 332 332 331 329 326 325 327 327 326 325 325 325 324 322 321 321 320 318 315 314 314 315 316 316 317 317 317 316 316 317 317
338 329 328 324 321 318 317 318 317 318 321 320 319 319 319 318 317 317 321 324 325 331 335 336 336 335 331 325 324 327 329 331 331 330 331 332 331 331 332 332 332 332 331 332 331 330 328 327 327 328 330 331 331 331 331 332 331 329 327 327 327 327 326 326 326 325 324 323 322 321 321 320 317 315 314 315 315 316 316 317 317 317 317 317 317
340 330 329 326 322 318 317 318 317 318 320 320 320 319 319 320 317 318 321 324 327 334 337 337 336 334 332 328 328 331 333 334 334 333 333 333 332 331 331 331 331 331 332 332 333 333 331 329 328 328 328 329 329 329 329 330 330 331 330 329 328 328 327 326 327 327 326 325 324 324 323 322 320 318 316 315 315 315 316 316 317 317 317 317 317
342 333 330 327 324 320 317 317 317 318 319 320 321 321 320 319 319 319 321 323 329 334 336 336 332 330 330 329 331 334 335 334 333 333 334 335 334 333 333 333 333 333 334 334 334 335 333 330 328 328 328 328 328 329 328 328 329 330 330 329 329 329 328 328 328 328 328 327 326 326 326 325 324 323 321 319 318 317 317 318 318 318 317 317 317
344 337 332 329 325 321 317 317 317 318 319 321 321 321 321 320 320 321 322 323 330 335 335 331 329 329 330 331 333 335 335 334 333 332 333 334 334 334 334 334 334 334 335 334 334 334 335 334 331 329 329 329 329 330 329 327 327 329 330 330 329 328 328 328 328 328 328 327 326 327 327 327 326 326 325 324 322 322 322 322 321 320 319 318 317
348 342 336 332 328 323 319 317 318 318 320 322 321 322 324 322 320 323 323 323 329 334 332 328 329 333 334 335 335 334 333 333 331 331 332 334 334 334 333 333 334 335 334 334 333 333 335 335 332 330 329 329 329 329 329 329 328 327 328 329 328 327 327 327 327 328 328 326 325 325 326 326 326 326 326 325 324 324 324 324 324 323 321 319 318
351 345 339 335 331 325 319 318 319 319 320 322 320 322 325 323 321 323 322 323 328 331 329 327 331 335 336 335 335 333 333 332 331 331 333 334 335 333 331 330 331 331 332 332 331 332 333 333 330 329 330 329 327 329 330 330 329 328 327 327 327 326 325 325 326 327 327 324 323 324 325 326 326 326 325 325 325 325 325 324 324 324 322 322 321
352 347 343 339 335 328 321 318 319 319 321 322 321 322 325 324 323 322 321 322 326 328 327 329 333 336 336 335 334 333 333 332 331 330 330 331 331 330 329 329 328 328 328 328 327 328 329 330 329 329 329 328 328 329 330 329 329 330 328 325 325 325 324 325 325 326 326 324 324 325 325 326 326 326 325 325 325 325 325 325 325 324 324 324 324
351 348 345 342 338 333 324 319 319 320 320 321 321 322 325 326 324 322 321 322 323 324 329 333 335 336 336 336 335 333 332 331 330 329 329 328 328 328 328 329 328 327 326 325 324 325 326 328 329 329 329 329 328 328 328 328 330 331 329 326 324 325 325 327 327 325 325 326 326 326 326 325 325 324 323 323 323 324 324 325 326 325 324 325 325
352 348 345 342 340 335 325 320 323 323 320 321 321 323 325 325 323 322 322 322 322 325 330 335 336 336 336 336 335 334 334 334 334 333 332 332 330 330 329 329 327 327 326 325 324 323 324 326 327 327 328 328 327 326 327 328 329 330 328 326 326 326 326 326 326 326 325 325 326 325 324 323 322 321 320 321 323 324 325 325 325 325 324 324 324
351 348 345 343 342 336 325 322 326 323 319 321 322 323 325 324 323 324 324 323 322 324 330 334 336 337 337 336 336 336 336 337 337 336 334 332 331 330 330 328 327 326 325 325 325 325 325 326 326 326 326 326 326 326 326 327 327 326 326 327 326 326 326 326 326 326 325 324 325 324 321 318 319 321 322 323 324 325 325 324 324 324 323 323 323
351 348 346 344 342 337 327 324 324 321 319 322 323 322 323 323 323 324 325 324 323 324 331 336 337 338 339 337 336 338 338 337 336 334 333 332 331 330 330 329 327 325 325 325 326 326 326 326 326 326 326 326 326 326 325 325 325 325 326 326 326 326 326 326 325 324 323 322 322 322 320 318 320 323 324 323 323 323 323 322 322 322 322 322 321
352 349 347 345 343 336 327 323 321 321 321 322 322 322 321 322 323 324 325 324 323 325 331 336 337 338 340 340 339 339 338 336 334 333 333 332 331 330 330 330 329 327 326 326 326 326 326 326 326 326 326 327 327 326 325 325 324 325 325 325 324 324 323 323 323 322 321 321 322 322 322 322 322 324 323 322 322 321 321 321 321 320 321 320 320
353 349 347 346 343 333 326 324 324 323 322 322 323 323 321 321 323 324 325 325 325 326 331 335 337 337 337 338 338 336 334 333 333 334 334 332 331 330 329 328 327 325 325 327 326 326 326 326 326 326 326 326 326 325 323 322 322 322 322 322 322 322 322 322 322 322 321 322 322 322 323 322 321 322 321 320 320 320 320 320 320 320 319 318 318
353 349 346 347 344 333 328 328 327 323 322 324 325 324 322 322 322 323 324 324 325 326 329 333 336 335 335 334 334 333 332 333 334 334 333 331 330 328 326 324 322 322 324 326 326 325 326 326 325 325 325 325 323 322 320 320 321 321 321 322 322 322 322 322 321 322 321 321 321 321 321 320 320 320 319 319 319 319 319 319 319 318 317 317 319
352 349 345 346 345 337 331 328 324 322 323 325 326 325 324 323 322 323 325 324 324 325 327 331 334 335 335 334 332 332 333 334 334 333 331 329 328 326 324 322 321 322 324 326 326 326 325 325 325 324 324 322 320 319 319 320 320 321 321 320 320 320 321 321 321 321 321 320 320 319 319 319 319 319 318 318 318 318 318 318 317 317 318 319 320
351 348 345 344 343 340 336 330 322 322 325 326 327 326 326 326 325 325 325 324 324 325 327 331 334 335 335 333 333 333 334 334 333 331 329 327 325 324 322 321 322 323 325 326 326 326 325 325 325 323 322 320 319 320 320 320 320 320 320 319 318 319 320 320 321 320 319 319 319 318 318 318 318 318 317 317 317 316 316 317 318 319 320 321 321
349 347 345 343 342 342 340 333 325 325 328 329 328 328 328 328 327 325 324 324 325 327 330 334 337 337 335 334 333 333 333 334 333 330 328 325 324 323 322 321 323 325 326 326 326 325 325 324 323 323 322 321 321 321 321 320 320 319 319 319 319 320 321 320 319 318 318 318 317 317 317 317 316 316 315 314 314 315 316 318 320 321 321 321 321
Wind_Speed
6 6 6 6 7 7 7 6 5 6 6 5 5 6 5 6 7 7 8 11 11 9 8 9 8 9 11 8 9 9 6 6 6 6 6 4 7 9 7 6 6 5 4 4 3 3 3 4 5 8 9 10 11 10 10 10 9 10 10 11 11 11 10 10 10 10 10 10 10 10 10 10 10 9 9 9 9 8 8 8 8 8 8 8 8
6 8 7 8 9 9 8 5 6 8 7 5 6 7 7 7 9 9 8 10 10 10 9 8 8 9 10 8 8 9 7 6 6 6 6 5 6 9 8 7 7 6 5 4 4 3 3 3 4 6 7 9 10 10 11 12 11 10 10 11 11 11 11 11 11 11 11 11 11 11 11 11 11 11 10 10 10 10 9 9 9 9 9 9 8
7 10 8 9 10 9 8 7 5 7 7 6 7 8 8 8 11 11 9 8 8 9 9 9 10 10 11 10 9 8 7 6 7 6 6 5 5 9 10 8 7 6 5 5 5 5 5 4 4 5 6 8 9 9 11 12 12 12 12 11 11 12 11 11 10 10 11 11 11 12 12 12 12 12 12 11 11 11 11 11 10 10 10 10 9
11 12 9 9 11 9 9 8 6 6 7 8 10 11 11 9 9 10 8 7 8 8 9 10 10 10 11 12 11 10 8 6 7 6 6 6 5 7 10 9 7 6 5 5 5 6 6 6 6 6 5 6 8 9 10 12 12 13 14 14 13 12 11 11 11 11 11 12 12 12 12 13 13 13 13 13 13 12 12 12 12 11 11 10 10
13 12 9 9 10 10 10 9 7 7 10 12 13 13 12 9 7 8 7 7 9 8 8 9 9 9 9 9 9 9 9 8 7 6 6 6 5 5 7 9 10 8 6 5 5 7 8 8 8 7 6 6 7 9 10 11 12 14 14 15 14 13 12 11 11 12 13 13 13 13 13 13 13 13 14 14 14 14 14 14 14 13 12 12 11
13 13 11 10 9 10 10 10 8 8 11 14 14 12 9 8 7 8 8 7 8 7 7 8 7 8 8 8 8 9 9 8 7 6 5 5 5 5 5 6 8 9 9 7 7 8 8 9 9 9 7 6 7 9 10 10 12 13 14 14 14 13 12 12 12 13 13 14 14 14 14 15 15 15 14 14 15 15 15 15 15 15 14 13 12
14 13 11 11 10 9 10 11 10 10 12 12 10 8 7 7 7 8 7 7 7 7 7 7 6 7 8 8 7 7 7 6 6 5 4 5 5 5 5 5 5 5 8 9 8 8 8 8 8 9 8 7 8 9 9 9 10 11 12 12 11 10 11 13 15 15 14 15 15 15 16 16 16 16 16 15 15 15 15 15 15 15 15 15 14
13 13 11 11 10 10 11 12 12 12 10 7 6 6 6 7 7 7 7 8 8 7 6 6 6 7 7 7 6 6 5 4 5 4 4 4 5 5 4 4 4 4 5 7 8 8 8 8 8 8 8 7 8 10 10 10 10 10 11 11 11 11 12 13 15 15 16 17 16 17 18 18 17 17 17 16 15 15 15 15 15 15 15 16 16
12 12 11 10 10 10 12 13 11 9 7 5 5 5 5 6 7 7 7 8 7 6 6 6 6 6 6 6 6 6 5 5 4 4 4 4 4 3 3 3 4 4 3 4 8 9 8 9 8 8 8 7 7 9 10 10 10 11 11 11 11 12 13 13 13 14 15 17 18 19 19 19 19 19 19 18 18 17 16 15 15 15 15 15 16
12 11 10 10 10 11 12 11 7 6 5 5 4 4 6 6 7 7 6 6 5 5 6 5 6 6 6 6 6 6 5 5 4 4 4 3 3 2 1 2 2 2 1 2 6 8 7 7 7 7 7 6 6 7 9 9 10 11 11 12 11 12 13 13 13 13 14 15 18 20 20 20 20 20 20 20 20 20 18 17 16 16 16 15 15
12 10 10 10 11 11 11 9 5 5 5 4 3 4 5 7 7 6 5 4 4 5 5 5 6 6 6 6 7 7 6 4 3 3 2 2 3 2 1 2 1 1 2 1 3 6 6 6 6 7 6 5 5 5 6 7 9 10 10 10 11 11 12 13 13 13 14 15 16 18 20 20 21 21 21 20 21 21 21 20 19 18 17 17 16
12 10 10 10 11 10 9 7 5 4 5 3 2 4 6 7 6 5 5 4 4 5 5 5 5 6 6 6 6 5 4 4 2 1 2 1 2 1 1 2 1 1 2 2 3 4 5 6 6 7 7 5 6 5 4 5 7 7 7 7 8 9 11 12 13 13 14 15 17 18 19 20 21 21 21 21 21 21 22 22 22 21 19 18 18
12 11 11 10 10 9 7 5 4 4 4 2 2 4 5 5 5 5 6 5 4 3 4 4 4 5 4 4 4 3 3 3 1 1 0 1 1 1 1 1 0 1 3 4 3 3 4 5 5 5 5 5 6 6 5 5 5 5 4 5 5 7 10 12 13 14 15 16 17 17 18 19 21 21 21 21 21 22 22 23 23 22 22 21 20
11 11 11 11 9 6 5 4 4 4 5 4 2 3 5 5 5 5 5 5 3 3 4 3 4 5 4 3 3 3 2 2 1 0 0 0 0 1 1 1 1 1 2 3 3 3 3 3 4 3 4 4 5 6 6 5 4 4 5 5 5 7 8 9 12 13 14 16 16 17 17 18 19 20 21 21 21 21 21 23 23 23 24 23 22
12 12 11 9 6 5 5 6 5 4 6 5 2 4 5 5 5 4 4 4 4 4 4 3 3 5 4 2 2 3 2 1 0 0 1 0 1 1 2 2 4 3 3 3 2 2 2 2 4 4 3 4 4 4 5 6 6 6 6 6 6 6 7 7 9 10 12 14 15 16 16 17 18 18 19 19 20 21 21 22 23 24 24 24 24
11 11 9 6 5 5 6 6 7 6 7 5 2 4 6 4 3 3 3 3 2 3 4 3 3 3 3 3 3 4 2 2 1 1 0 1 1 2 2 1 4 3 3 2 1 2 2 2 3 4 3 4 3 3 4 6 7 7 6 6 7 7 8 8 9 10 11 13 13 14 15 16 17 17 18 19 20 21 22 23 23 23 23 24 24
9 8 7 6 6 7 7 6 7 7 7 4 3 5 5 3 4 4 2 3 2 1 3 3 2 0 1 3 3 4 3 4 2 1 0 2 2 3 3 2 4 4 3 2 2 3 2 4 4 3 3 3 3 2 4 5 6 7 8 8 9 9 10 10 9 10 12 13 13 14 15 15 16 16 17 18 19 21 22 22 23 23 23 24 25
9 9 8 8 8 8 8 7 7 6 5 4 6 7 5 3 4 3 2 4 3 1 1 3 4 0 1 1 1 3 5 4 3 1 0 0 1 2 2 3 4 5 4 3 4 3 2 3 4 3 2 3 3 3 5 5 6 7 7 7 8 8 9 10 10 10 12 13 14 15 16 17 17 17 17 16 17 19 20 22 23 24 24 25 25
9 9 9 8 9 10 9 8 6 5 4 5 5 5 3 3 3 3 2 3 3 2 1 2 3 2 0 1 1 1 2 3 3 1 1 2 2 1 1 1 4 3 4 4 3 2 2 2 2 3 4 3 3 3 5 6 6 7 7 7 7 7 8 9 9 9 10 12 14 15 16 17 18 18 18 17 17 18 19 20 22 23 24 24 25
9 9 9 9 10 9 8 7 5 6 8 8 5 3 5 5 4 5 3 2 3 3 1 0 1 2 2 2 2 2 2 2 1 0 1 2 3 3 3 2 4 2 1 3 2 2 6 4 1 0 3 4 3 3 4 6 7 8 8 9 9 9 9 9 10 10 10 10 11 13 15 17 18 18 18 18 19 19 19 19 20 21 23 23 24
11 10 10 9 9 8 8 8 7 8 9 7 4 5 6 6 5 4 2 2 3 3 3 2 1 1 1 1 1 2 2 1 1 1 1 3 2 2 2 2 2 2 3 4 3 4 4 3 2 2 2 3 3 2 3 7 10 10 11 12 11 12 11 11 11 12 12 11 10 10 12 14 16 16 17 18 19 20 20 20 20 21 22 22 23
11 12 11 9 9 8 8 9 8 8 7 5 6 7 6 5 5 4 4 4 3 3 3 3 2 2 2 1 0 1 1 1 1 0 0 2 4 3 4 5 3 3 3 4 4 5 4 4 5 4 2 3 3 3 3 7 12 13 13 14 14 14 15 14 14 14 13 13 12 12 11 12 13 14 15 15 17 19 20 21 21 23 23 23 22
9 10 10 9 9 9 7 7 6 6 7 7 7 6 3 3 5 5 5 4 4 3 2 3 3 2 1 0 0 1 2 2 2 3 2 3 4 5 6 6 5 5 6 7 7 6 7 9 7 5 5 4 5 5 6 9 14 16 15 15 15 16 16 17 17 17 16 16 15 14 13 13 13 14 14 14 15 16 18 20 21 23 24 24 24
10 9 9 9 9 9 7 7 7 7 7 6 7 6 4 4 5 5 4 4 4 3 2 2 2 2 1 1 2 2 3 3 3 4 4 4 4 5 6 6 7 7 7 8 9 7 8 9 8 9 9 8 7 8 11 12 12 16 17 17 17 18 18 18 18 18 18 18 18 16 15 15 14 14 15 15 15 15 16 17 19 21 23 25 26
12 11 10 10 10 9 7 8 9 8 7 7 6 7 7 6 6 5 5 4 3 3 3 2 3 3 2 3 3 3 3 3 4 4 4 5 6 6 7 7 7 8 7 7 9 9 9 9 9 9 10 12 11 11 13 11 9 15 19 18 19 20 21 20 19 18 18 19 19 18 18 17 16 16 15 16 16 16 16 17 18 19 21 23 25
13 12 12 12 11 10 8 8 9 8 8 9 7 6 7 7 6 6 5 5 4 4 3 3 4 4 3 4 4 4 4 5 5 5 5 6 7 7 8 8 7 8 9 9 10 10 10 9 9 10 12 15 13 12 14 12 11 16 18 18 18 20 21 22 20 19 19 19 19 19 19 19 18 18 17 16 17 17 17 17 18 19 20 21 22
13 13 13 13 13 12 9 8 9 9 8 9 8 6 6 6 6 6 6 6 5 5 4 5 5 5 5 5 5 5 5 5 5 6 6 6 7 7 8 8 8 9 10 10 10 10 10 11 12 12 12 14 14 14 15 14 13 16 18 18 17 18 20 22 21 20 20 20 19 19 19 20 20 19 19 18 17 17 18 18 18 19 20 21 22
13 13 14 14 13 13 10 9 9 9 8 9 8 7 6 6 6 6 6 6 6 6 6 6 6 6 6 7 7 6 6 7 6 7 7 8 8 8 8 8 8 9 10 10 11 11 11 12 13 12 9 11 13 15 15 15 16 16 17 18 17 18 20 22 23 21 20 20 21 20 20 21 21 21 20 19 19 18 18 18 18 19 19 20 21
15 15 15 14 14 13 11 10 9 9 9 9 9 9 8 6 5 6 6 6 6 6 7 7 6 6 6 7 8 7 7 8 8 8 9 9 9 9 9 8 9 10 11 12 12 12 12 12 13 11 9 11 14 15 15 16 16 16 17 19 18 18 19 21 23 23 21 21 22 22 22 22 22 21 21 20 19 18 17 17 17 18 19 19 20
17 16 16 16 15 13 12 11 10 10 10 10 10 10 10 9 7 7 8 8 8 8 8 8 7 7 7 7 8 7 8 9 9 8 9 10 11 10 10 10 10 11 12 13 14 14 12 12 13 13 13 14 15 16 17 16 16 18 19 20 20 20 19 20 22 23 23 22 23 23 24 23 22 22 21 20 19 18 17 17 16 16 17 18 18
20 20 18 17 16 14 13 13 13 12 10 11 12 12 11 10 9 9 9 9 9 9 9 8 7 8 8 7 7 8 8 9 9 9 10 11 11 11 11 11 12 13 14 15 17 16 13 12 14 15 16 16 16 17 18 18 19 20 20 20 21 20 20 21 22 23 23 23 22 22 23 23 22 22 21 20 19 19 18 18 17 16 17 17 18
24 23 20 18 17 16 14 15 16 14 12 12 13 14 13 11 11 10 9 9 10 10 9 8 8 8 8 8 8 8 9 10 11 11 11 11 11 12 13 13 13 14 15 15 18 21 19 16 16 16 16 16 16 16 18 20 20 20 20 21 21 20 21 23 24 25 25 24 22 21 21 22 22 22 22 21 21 20 20 20 20 19 18 18 18
28 25 22 21 20 18 17 18 18 15 13 14 14 15 15 13 12 11 11 12 12 11 11 10 10 10 10 9 8 9 10 10 10 11 11 11 11 12 13 14 13 14 15 16 19 22 22 21 19 17 16 16 16 16 17 18 18 18 20 22 22 23 24 24 24 24 25 25 23 23 22 21 22 23 24 24 23 23 23 22 22 22 21 21 20
30 28 25 24 23 21 21 21 19 15 15 15 15 15 15 14 12 11 13 15 14 13 12 12 12 12 11 9 8 9 10 10 11 11 11 11 11 12 13 14 14 15 16 17 19 21 22 23 23 22 20 17 17 17 17 18 20 22 23 23 23 24 24 24 23 23 24 25 26 26 25 23 23 24 25 26 26 26 25 25 25 25 25 24 24
31 30 28 27 25 24 24 22 20 18 18 18 17 16 15 14 13 13 14 14 14 14 14 13 13 12 11 10 10 10 10 11 12 11 11 12 12 13 14 15 16 17 17 18 19 21 23 25 25 25 23 21 19 19 19 20 22 23 24 23 21 22 22 23 23 23 24 26 26 27 27 26 25 25 27 28 28 28 28 28 28 28 28 28 28
33 33 30 29 28 27 26 24 22 20 20 20 18 16 15 14 14 15 15 14 15 15 15 14 13 12 13 13 12 11 11 12 13 12 11 13 13 14 15 15 17 17 17 18 18 19 22 25 26 27 27 26 25 24 23 23 22 22 23 23 22 22 22 22 23 23 23 23 24 24 24 25 25 25 27 29 30 31 31 31 31 32 32 32 31
35 35 33 32 31 30 28 25 23 21 21 20 18 17 16 15 15 16 15 15 17 17 15 14 14 13 14 14 13 11 12 12 12 12 12 13 14 15 15 16 17 17 17 18 18 18 22 26 28 27 27 27 26 25 25 24 23 23 22 22 22 22 22 22 22 21 21 21 23 23 23 24 25 25 25 27 29 30 31 32 33 34 35 35 34
38 37 36 35 33 32 29 26 24 23 22 21 20 18 16 17 18 17 16 18 18 17 16 15 15 15 16 15 14 13 12 13 13 12 13 14 15 15 15 16 16 17 18 19 19 20 21 25 27 28 27 26 25 26 26 25 24 24 23 22 23 23 22 21 21 21 21 22 23 23 23 24 26 26 27 28 27 28 29 31 33 34 34 35 34
37 39 38 37 36 34 31 28 26 25 22 22 23 20 16 19 20 18 18 20 20 18 17 16 15 16 17 15 14 14 14 14 14 13 13 14 15 16 16 17 16 16 18 19 20 20 20 23 27 27 26 26 27 28 27 24 23 23 22 23 25 25 22 21 22 23 24 25 26 26 26 27 28 29 30 29 27 29 31 32 33 33 32 33 35
35 39 39 38 37 35 31 28 27 26 24 24 26 23 18 20 22 20 19 21 21 20 18 17 15 16 17 16 15 15 15 15 14 14 14 15 15 17 18 19 19 19 19 19 20 20 20 23 26 26 25 27 29 28 24 23 22 21 21 22 24 25 25 24 24 24 26 28 30 29 29 28 29 30 31 29 28 29 31 33 34 34 35 38 39
34 37 38 38 38 36 32 29 27 28 27 28 29 24 19 21 23 22 21 21 22 21 18 16 15 16 17 16 15 15 16 16 17 17 16 15 16 19 20 21 22 22 22 23 24 25 24 25 26 26 26 27 27 24 23 23 22 20 21 23 24 25 26 25 25 25 27 29 29 29 29 28 28 31 32 31 30 29 31 33 35 37 38 38 37
34 35 36 38 39 37 34 30 28 29 30 31 31 24 19 22 25 23 22 21 21 19 16 15 16 17 18 17 16 17 18 19 19 19 18 18 19 20 21 22 23 24 24 25 27 27 27 26 26 26 26 26 25 23 23 23 21 19 22 24 23 24 23 23 25 25 24 25 26 27 28 28 29 33 36 37 37 35 34 34 35 35 35 35 36
34 35 36 40 40 38 36 31 29 32 34 34 31 24 20 24 26 25 23 21 20 19 16 17 18 18 17 17 17 18 19 19 19 18 18 19 20 21 21 22 22 23 25 26 27 28 28 27 25 24 25 26 26 25 24 21 19 20 23 22 21 22 22 23 25 24 22 23 26 29 31 33 36 40 42 42 40 36 33 32 32 32 33 35 38
33 36 39 42 41 38 35 32 32 35 37 35 30 24 23 25 26 25 22 20 21 20 18 18 18 18 17 17 17 16 16 19 20 19 19 20 22 23 23 22 22 22 24 25 25 26 25 25 24 24 26 27 25 23 22 21 20 21 22 21 20 21 23 22 23 24 25 26 28 32 37 39 37 37 37 34 32 31 29 29 30 32 34 37 39
34 40 43 43 40 37 35 34 34 36 37 34 28 25 26 26 25 24 22 21 22 21 19 17 17 17 17 18 17 15 17 20 21 20 20 21 22 24 23 21 20 20 21 22 23 23 23 24 24 25 26 25 23 21 21 22 23 22 20 20 20 21 22 23 25 29 30 29 28 30 35 35 31 29 30 29 28 29 30 30 32 34 36 38 40
34 38 42 42 39 37 35 35 36 37 36 31 25 25 28 27 25 24 22 22 23 22 19 17 17 17 16 17 18 17 19 23 23 23 23 22 22 22 21 19 18 20 22 22 22 22 23 23 24 24 24 23 22 22 22 22 22 21 21 22 23 26 28 28 30 32 30 25 24 28 33 33 30 29 31 30 30 31 33 33 34 36 37 39 42
32 32 37 40 38 36 36 36 36 35 33 28 23 25 29 29 28 26 23 24 24 23 21 19 18 19 19 20 21 22 23 25 25 25 24 23 21 20 19 19 21 23 23 21 21 21 22 22 23 22 20 20 20 22 24 23 24 25 25 24 24 25 26 26 27 28 27 24 23 28 33 33 30 30 32 31 32 34 34 34 35 37 40 43 44
30 28 33 39 39 38 37 36 35 34 31 27 24 26 28 28 28 26 25 26 25 24 23 21 20 20 21 23 24 25 25 25 24 25 25 22 20 19 21 22 23 23 22 21 21 22 21 21 22 21 21 23 24 25 25 26 26 26 25 22 20 19 22 25 27 27 27 25 24 26 31 31 29 30 33 32 33 35 34 35 38 40 42 43 41
29 27 26 33 40 40 38 38 37 32 28 26 25 26 27 27 26 23 25 27 27 25 25 23 21 21 23 25 25 24 23 24 25 26 24 21 19 20 22 23 23 23 22 20 20 21 21 21 22 23 24 26 25 23 23 23 22 20 20 21 20 20 22 25 27 27 27 27 25 25 29 30 28 29 34 34 34 35 36 37 39 41 42 42 40
25 23 20 27 37 38 36 37 36 30 25 25 25 25 26 27 24 21 23 26 27 26 25 23 22 22 25 25 24 24 25 26 27 25 21 19 19 20 23 24 24 23 21 18 18 19 21 20 20 21 23 22 21 20 18 17 16 17 20 23 24 23 23 23 25 27 29 29 27 25 27 28 27 28 32 35 36 36 35 36 39 40 40 40 41
21 20 20 27 36 37 35 35 34 31 26 25 26 27 27 27 23 21 22 25 27 27 24 21 21 24 26 25 23 24 25 25 25 23 20 19 19 21 23 24 22 20 17 17 17 17 18 19 18 19 19 18 18 19 19 19 19 20 23 25 25 23 23 24 25 28 29 28 25 23 25 27 27 28 31 35 37 36 34 36 40 40 40 42 45
Wind_Direction
245 245 253 260 258 262 266 274 279 275 285 302 297 297 307 304 297 298 305 306 307 314 313 313 327 319 309 312 312 314 317 314 305 294 295 282 282 296 312 318 319 328 332 334 325 289 251 221 213 213 214 217 221 226 231 229 222 216 212 213 214 216 218 221 224 228 229 228 228 226 225 226 229 233 236 239 236 230 228 231 237 240 245 250 256
243 241 242 261 267 271 273 271 279 281 280 283 286 297 305 301 296 297 303 307 311 317 316 316 316 303 298 297 297 306 312 307 303 298 294 291 286 294 309 318 313 319 320 319 324 315 294 266 238 228 227 226 223 222 229 234 233 228 224 221 219 217 217 221 224 229 232 234 236 235 235 235 234 235 237 240 243 242 237 234 238 244 250 251 254
233 245 243 262 271 273 274 266 266 281 288 287 285 290 297 302 301 303 310 312 315 317 320 326 321 313 311 308 300 296 293 291 294 295 288 286 284 290 305 314 308 312 315 312 312 310 308 301 283 259 245 238 235 230 230 232 232 234 233 230 229 224 220 221 225 230 235 239 240 240 241 242 242 241 241 241 243 247 247 244 241 243 250 254 256
237 245 246 264 274 276 275 271 265 276 289 287 283 290 299 303 306 318 329 326 323 324 326 329 324 316 312 312 309 299 290 280 277 281 278 277 279 289 303 310 308 306 303 304 306 306 306 304 300 291 278 258 249 245 240 235 230 233 235 233 233 232 228 226 226 228 234 240 243 244 244 244 246 247 247 245 244 245 248 250 248 247 248 253 258
252 256 257 264 273 280 279 278 279 278 281 284 292 303 306 305 317 333 334 326 323 323 318 314 310 306 302 301 300 291 283 276 276 278 276 279 284 286 300 310 314 313 305 304 305 301 300 299 297 296 295 282 267 258 251 246 238 236 238 236 235 236 237 237 234 230 230 233 236 240 243 244 245 246 249 249 247 245 246 249 251 252 249 250 254
259 267 270 272 277 282 283 287 287 280 287 296 305 310 307 307 319 324 323 324 318 312 308 306 301 296 294 289 287 282 278 281 282 279 274 275 279 282 290 298 306 313 313 312 308 301 299 297 292 289 290 287 280 274 265 257 250 246 245 244 243 243 247 248 244 239 235 235 235 236 237 240 241 240 241 245 246 245 244 245 249 252 252 250 249
261 270 274 278 283 286 289 292 290 287 293 300 308 312 313 317 318 319 321 316 306 307 305 301 297 292 292 291 287 285 286 287 282 276 273 276 285 292 292 285 289 301 303 305 305 303 302 299 294 291 288 283 280 281 277 269 262 256 251 252 253 252 254 251 246 243 242 242 242 241 240 239 241 241 240 242 243 244 245 245 246 249 252 253 250
259 270 275 277 280 284 283 284 289 297 300 309 328 328 324 322 317 318 314 303 300 302 297 293 295 293 295 300 300 299 297 283 273 274 275 275 285 293 293 295 298 295 300 308 303 301 304 301 300 297 292 286 281 280 280 279 276 269 262 258 252 250 252 249 246 244 245 247 247 247 246 245 244 246 248 247 246 248 248 246 246 247 249 253 254
261 268 276 280 279 276 278 279 285 297 305 330 347 331 324 323 316 317 311 305 304 293 289 289 290 292 295 299 299 301 297 279 271 272 276 281 288 291 295 294 301 312 332 320 300 302 312 304 301 304 298 289 280 279 280 280 278 273 270 265 252 248 251 252 250 247 247 248 248 248 248 248 246 247 249 249 248 250 251 250 248 248 249 250 254
268 271 274 278 282 279 283 285 279 289 314 346 344 321 323 322 319 318 307 307 308 295 292 286 284 290 294 292 287 287 282 279 281 278 276 288 291 269 268 290 307 320 314 284 294 311 324 314 314 319 317 310 295 284 280 279 274 268 266 265 258 251 250 250 249 249 248 247 247 249 249 249 248 248 248 248 247 248 250 252 251 251 251 251 251
268 273 273 278 288 287 285 286 279 287 316 343 330 313 318 317 320 312 298 305 300 289 285 279 283 284 281 280 280 280 278 279 280 284 291 283 274 254 228 267 245 269 276 246 291 317 328 326 334 337 339 344 334 312 290 280 271 269 270 269 267 260 254 252 248 246 246 246 246 248 248 248 249 249 248 248 248 247 247 249 251 252 253 253 251
272 274 277 283 292 287 274 275 276 283 312 337 312 295 298 306 314 299 285 282 273 277 277 276 284 284 281 277 280 288 289 290 294 297 306 282 276 276 237 248 210 264 288 264 266 297 312 316 333 344 346 341 335 332 311 286 276 279 285 279 274 263 255 254 253 250 247 245 245 248 249 249 251 252 250 248 248 247 248 248 249 250 251 253 254
278 277 280 288 289 278 261 267 276 271 295 312 279 293 302 305 302 290 289 282 273 282 282 293 310 312 325 319 303 312 306 309 352 77 274 276 297 323 287 261 68 21 314 303 310 327 332 323 319 326 329 329 336 334 316 300 295 298 300 288 278 266 256 252 252 253 253 249 248 251 252 252 253 253 252 251 250 249 249 249 249 249 250 252 253
279 275 279 285 280 264 247 267 270 254 277 290 284 304 313 304 285 284 298 303 312 305 286 311 338 334 342 328 281 276 308 335 355 126 220 188 74 10 35 27 348 11 357 345 357 6 8 343 313 300 306 314 329 331 325 319 307 307 308 294 283 278 271 262 256 253 253 253 252 253 254 254 254 253 253 253 254 254 252 250 249 249 250 250 251
274 271 276 275 258 246 252 272 272 264 281 286 280 297 299 287 275 279 293 304 312 311 309 322 338 334 323 306 274 266 284 40 262 159 104 126 80 48 70 7 327 359 40 18 14 15 23 346 322 326 320 307 315 327 332 331 319 318 319 309 299 290 283 274 266 261 257 256 256 257 257 255 254 254 254 255 255 255 254 252 250 250 250 249 249
266 267 270 261 239 253 266 273 277 274 275 281 296 292 286 274 267 267 272 289 289 303 327 337 341 350 331 310 280 257 239 82 53 154 151 303 130 101 91 26 341 7 47 6 9 33 9 343 334 341 336 322 336 335 310 315 320 322 322 313 306 297 291 283 272 266 264 262 261 261 261 258 256 256 256 256 255 254 254 254 253 253 251 250 250
252 253 253 254 255 264 265 260 267 267 265 278 283 268 268 261 252 251 256 268 247 266 322 323 318 76 349 312 279 283 346 35 29 218 336 7 100 84 64 52 345 345 12 344 357 55 16 337 348 353 344 327 337 339 300 306 312 311 314 310 303 295 290 285 276 269 266 266 265 265 266 265 263 261 260 259 259 260 260 258 257 255 253 251 250
240 245 244 251 259 259 253 246 249 261 262 249 252 264 273 256 241 243 257 246 219 174 297 308 321 157 159 330 0 343 346 5 357 312 329 29 114 57 59 76 0 357 36 359 335 31 48 353 2 341 328 320 311 309 300 307 310 312 321 317 309 303 294 288 281 273 269 268 269 267 267 267 267 266 265 263 262 262 262 260 258 257 255 252 251
232 240 239 238 248 249 249 250 245 254 261 246 254 270 256 222 217 214 225 226 183 142 205 309 351 11 43 7 28 351 346 17 11 350 276 232 185 205 242 307 338 357 56 23 345 12 334 333 18 324 314 314 310 312 307 312 317 322 330 329 324 318 309 305 298 289 279 273 271 270 268 267 267 267 268 266 263 261 261 260 257 257 258 256 253
222 228 239 236 242 245 245 248 237 233 244 252 258 232 212 208 211 213 208 186 156 159 185 234 26 7 343 9 22 0 26 33 18 110 309 277 206 200 226 299 334 327 17 1 356 335 318 317 43 11 316 306 308 318 305 304 309 313 317 319 320 318 316 313 310 309 303 291 281 276 274 272 270 268 268 266 263 261 261 260 259 258 258 258 256
226 223 235 237 235 235 237 242 241 241 247 252 236 211 209 205 210 212 177 158 177 171 167 184 186 223 274 338 26 14 26 0 348 86 15 301 264 217 212 261 299 279 278 295 293 297 305 304 277 237 267 295 304 303 285 292 300 303 304 304 305 306 306 306 304 305 305 304 301 292 285 281 278 275 271 267 264 262 260 258 258 258 258 258 258
233 230 229 227 224 227 237 247 246 239 233 210 197 210 212 196 191 189 177 181 189 172 165 180 189 202 220 202 78 353 326 299 312 1 208 295 296 287 271 267 275 289 280 274 298 304 279 283 298 280 234 246 271 273 263 280 292 295 294 293 295 295 296 297 297 297 295 295 297 297 296 292 288 286 281 274 269 265 262 259 257 257 258 259 259
221 228 224 213 218 227 229 237 232 220 216 198 190 207 223 216 200 191 194 190 185 196 191 176 181 187 192 247 310 260 267 258 274 291 283 279 284 282 283 292 308 308 285 273 286 289 277 289 291 261 243 248 254 253 252 275 293 297 294 291 293 294 293 292 291 291 291 290 289 289 290 290 290 290 289 286 279 273 269 264 259 258 258 258 258
205 212 215 206 218 229 217 212 212 213 219 201 184 189 193 213 212 198 200 195 193 219 218 187 198 186 171 271 282 251 248 255 266 280 281 276 282 286 287 295 299 292 275 271 280 271 262 276 274 265 271 270 258 255 265 281 294 294 295 296 297 297 295 293 291 289 288 288 288 286 284 284 284 284 285 286 285 282 278 273 268 263 261 259 258
206 205 209 207 216 225 214 207 210 213 210 189 187 195 184 194 210 203 205 205 203 224 220 203 219 220 204 225 250 254 254 262 269 270 273 280 286 288 290 296 295 289 281 279 286 276 254 249 258 271 278 277 274 266 273 284 279 278 290 297 298 296 294 293 292 289 287 286 286 286 285 282 280 280 280 280 281 281 280 278 276 272 268 265 262
208 207 206 204 209 220 220 208 206 214 207 187 191 204 188 190 204 202 212 221 213 217 225 221 228 239 233 227 236 246 249 253 260 262 263 273 280 284 291 296 291 286 286 286 289 286 269 258 262 265 264 270 275 268 273 281 268 271 288 295 292 290 290 291 291 289 288 286 284 283 284 283 282 280 278 278 278 277 276 276 275 275 273 271 268
211 210 208 206 206 216 226 215 203 207 206 191 189 205 203 197 203 205 212 226 223 218 226 226 232 244 247 247 247 243 251 258 258 262 266 266 268 271 277 285 288 286 287 285 282 283 282 279 278 271 259 262 270 268 272 278 271 277 293 298 295 292 291 292 292 290 288 286 284 281 280 281 281 280 280 280 279 278 278 277 275 274 272 272 271
211 209 210 211 209 215 222 213 201 198 198 192 186 200 214 205 209 216 213 224 232 228 230 232 239 248 254 264 266 256 253 253 252 254 258 259 261 263 265 269 280 286 289 289 284 283 285 281 280 277 259 261 271 270 269 272 272 279 291 297 300 299 297 296 296 292 287 284 282 280 278 277 277 277 278 280 282 282 281 280 279 278 275 272 271
206 208 209 211 214 219 216 202 195 190 189 192 188 195 211 213 220 231 227 230 234 232 234 235 239 250 257 264 270 272 268 266 266 264 265 273 276 274 273 271 272 276 283 287 285 282 284 283 282 280 272 269 269 264 265 271 273 275 282 289 296 298 295 294 295 294 289 284 282 281 279 276 274 272 272 276 280 282 283 283 282 281 281 279 275
206 209 209 211 219 223 212 196 193 191 189 196 199 197 203 204 211 227 231 230 229 234 244 242 236 244 249 252 260 270 274 276 277 274 276 283 285 283 283 281 278 276 277 280 282 280 280 281 281 277 272 271 268 265 267 272 273 276 281 288 295 299 296 292 292 292 289 285 282 281 280 277 273 269 267 270 276 279 282 283 283 284 286 287 286
217 218 217 216 220 220 207 194 193 198 198 204 210 210 211 212 214 220 229 237 237 235 245 250 243 244 249 252 259 264 270 276 276 275 276 279 284 287 288 288 288 286 285 285 285 286 284 282 282 279 273 272 273 271 272 276 278 281 285 288 290 294 295 294 294 292 288 285 281 278 278 277 273 268 264 265 270 274 276 278 280 280 282 285 288
228 230 228 221 219 218 206 196 200 208 214 217 217 219 223 227 224 215 216 239 247 237 233 238 238 242 248 250 256 264 273 280 280 280 282 283 287 289 288 291 290 289 290 289 289 293 295 291 287 285 281 279 278 273 275 284 290 291 293 294 292 289 290 292 294 293 290 288 282 276 274 274 271 267 263 262 264 268 271 273 275 274 274 276 279
233 236 235 228 227 223 207 202 212 219 221 222 216 215 223 230 228 216 205 217 235 237 230 229 233 238 245 251 261 268 273 279 279 279 283 285 287 286 287 289 287 287 289 289 290 294 297 298 295 290 286 285 282 278 279 283 287 289 292 293 291 291 292 292 292 291 291 290 286 281 277 274 269 264 260 257 259 262 265 268 270 271 272 272 273
234 239 239 234 232 225 213 212 220 219 217 218 213 212 221 225 225 222 213 215 227 235 233 231 235 240 249 262 272 274 274 279 281 281 282 282 281 278 278 278 277 278 281 283 286 290 294 298 299 295 291 288 285 284 283 282 284 290 294 292 287 286 290 290 289 288 288 289 287 283 281 277 269 262 258 256 257 260 263 266 267 269 270 272 274
234 239 238 236 234 227 221 221 221 216 216 218 213 213 217 218 222 224 221 222 229 234 236 237 239 246 260 269 272 272 274 275 277 280 280 280 280 277 277 278 277 279 280 279 281 286 292 296 297 296 294 290 287 287 288 289 292 295 298 296 288 284 286 288 288 288 287 288 288 285 282 280 273 266 261 259 259 261 264 266 267 269 270 272 274
234 238 236 236 234 230 227 224 222 219 217 215 211 210 211 213 219 223 225 231 235 234 237 240 244 252 261 266 267 266 266 266 270 274 276 277 279 280 281 282 282 283 284 281 278 280 286 291 294 294 294 293 292 291 292 294 296 296 296 295 292 288 288 287 287 288 286 290 294 292 288 285 279 272 267 264 262 263 264 266 268 269 270 271 271
233 235 234 234 233 232 229 223 222 221 217 214 212 210 211 213 217 223 229 235 238 238 239 243 250 255 259 262 262 258 258 262 266 270 271 272 276 279 281 281 281 282 281 280 279 276 279 286 292 294 294 294 293 293 294 295 295 294 293 293 291 289 289 288 284 282 282 286 291 293 292 288 285 282 278 273 268 267 268 269 268 267 268 269 269
230 233 233 233 233 233 228 222 223 222 216 216 214 208 212 219 220 224 227 229 234 238 241 245 251 259 262 263 261 256 256 258 263 269 270 270 274 276 278 280 281 281 278 279 281 279 278 284 290 294 293 292 292 291 292 294 293 289 287 288 289 287 288 289 286 282 282 285 285 283 282 282 282 283 282 281 282 282 281 280 277 272 270 269 269
225 231 232 231 233 233 228 225 227 224 216 215 213 209 219 226 224 226 225 224 230 235 240 247 252 257 259 259 259 259 258 259 264 270 269 268 272 276 280 283 282 278 278 280 284 284 280 279 285 291 291 292 294 291 288 292 293 286 282 284 287 288 288 286 286 285 286 289 290 286 282 281 280 280 279 280 284 287 287 287 284 279 278 280 283
220 228 232 231 232 231 226 225 228 224 216 213 211 211 222 226 225 230 224 220 228 235 241 251 255 254 252 252 254 257 260 264 265 266 265 264 268 276 282 285 284 282 282 282 285 286 283 282 288 291 290 293 295 288 282 288 291 285 284 287 287 288 289 286 286 286 288 293 295 292 287 284 282 282 281 279 278 279 281 282 280 280 283 288 291
219 223 229 231 230 228 224 223 225 224 219 215 210 212 225 228 225 229 225 221 229 237 244 253 254 252 251 252 252 252 254 256 257 263 268 266 269 276 281 283 284 285 284 285 286 286 285 286 290 292 292 295 296 291 287 293 293 286 290 293 289 287 288 288 287 288 290 294 294 290 287 285 282 283 284 282 278 275 277 278 278 280 284 285 287
219 219 224 227 230 230 225 219 222 225 221 216 212 216 233 232 224 225 227 227 232 237 245 253 252 250 251 252 254 254 255 258 262 269 273 270 271 275 278 281 283 284 284 285 286 288 288 288 288 290 291 292 293 292 291 294 293 287 290 293 289 287 287 287 289 292 292 292 289 286 285 285 285 285 286 286 283 280 277 275 274 276 278 278 280
221 218 220 225 230 229 222 219 229 231 222 217 216 221 230 226 221 224 228 231 235 236 242 249 250 251 250 251 255 257 260 264 265 267 270 270 272 277 281 281 281 281 282 283 286 288 289 289 287 286 286 288 291 292 291 291 288 285 289 291 290 289 289 290 293 294 292 288 286 285 285 287 288 289 289 288 286 283 278 275 273 273 272 274 275
221 219 220 224 229 227 221 225 233 226 218 218 221 222 222 219 220 225 230 234 235 234 238 245 249 251 252 255 258 258 262 264 261 264 272 277 280 284 286 283 280 280 283 285 287 287 287 287 286 284 284 286 287 288 289 290 287 285 288 290 290 290 289 291 292 291 289 288 286 286 289 292 293 291 289 288 286 284 280 277 277 277 276 276 276
220 222 225 226 228 227 225 227 226 217 215 221 223 220 219 218 221 226 231 237 237 236 240 245 250 252 254 260 262 260 262 265 267 275 282 283 285 287 286 284 285 286 286 286 286 285 285 286 285 283 283 282 282 284 286 288 289 290 289 289 289 288 287 288 288 287 288 288 287 289 293 298 297 290 289 291 288 285 283 281 281 281 280 280 280
221 225 229 229 228 227 226 223 217 212 216 221 221 221 221 221 225 229 232 238 239 239 241 243 248 251 251 257 260 259 261 268 276 284 287 285 285 286 286 286 288 288 287 288 290 290 290 288 284 284 284 283 282 285 287 289 289 289 287 287 287 286 286 288 288 289 290 289 290 291 292 298 301 292 290 293 290 286 285 284 282 282 281 280 280
225 226 230 231 227 222 219 216 212 213 219 220 218 223 225 225 229 233 233 235 239 242 242 242 247 252 252 255 258 261 267 273 279 284 286 285 282 282 283 281 282 285 286 286 286 286 287 287 285 285 286 284 283 284 286 286 285 285 286 286 287 287 289 290 289 289 289 290 291 289 286 293 298 292 289 291 290 287 286 284 282 282 282 283 284
226 224 227 229 227 220 215 215 214 215 220 221 219 222 225 228 232 235 236 236 238 243 245 244 248 253 257 261 265 270 275 277 281 284 285 284 281 279 280 280 282 286 286 284 283 283 283 282 281 279 277 277 279 280 282 283 283 287 289 289 289 290 292 292 290 289 290 290 289 288 286 290 294 291 290 291 290 289 287 285 284 286 287 289 289
222 221 220 224 226 222 217 218 218 217 220 226 225 223 226 230 232 236 241 239 238 243 247 248 250 252 257 264 270 276 278 280 284 287 287 284 280 280 281 283 285 286 286 287 289 291 288 284 282 281 279 281 283 283 283 284 288 297 299 299 302 299 292 289 289 289 291 290 289 289 289 290 292 292 292 292 290 290 289 288 288 290 292 291 289
218 219 213 216 221 221 221 222 219 218 225 232 234 234 234 232 233 241 245 238 235 240 246 249 252 252 256 264 272 277 279 280 283 285 284 280 279 281 283 285 287 287 289 292 293 293 292 291 293 292 291 293 297 298 299 299 305 308 303 304 307 299 289 289 291 292 292 291 291 293 291 291 294 295 295 295 293 291 289 290 293 295 296 294 290
214 217 212 216 221 222 223 222 219 223 230 231 236 241 238 234 237 242 238 230 231 239 244 247 250 253 258 266 275 280 281 281 280 280 279 278 279 280 282 284 285 286 288 286 284 285 286 289 294 295 294 298 301 305 309 309 309 308 304 306 307 296 288 292 295 295 293 291 293 297 295 294 297 296 296 296 295 293 292 295 298 298 297 297 296